www.pogodaiklimat.ru

Погода и климат >> Архив погоды >> Пакистан >> Сиялкот


ПОГОДА в Сиялкоте

  • Прогноз погоды в Сиялкоте
  • Монитор погоды в Сиялкоте

АРХИВ ПОГОДЫ в Сиялкоте

Время (UTC), дата Ветер
(напр.,м/с)
 
Видим.   Явления Облачность Т
(С)
Тd
(С)
f
(%)
Тe
(С)
Тes
(С)
Комфортность P
(гПа)
Po
(гПа)
Тmin
(С)
Tmax
(С)
R
(мм)
R24
(мм)
S
(см)
12 18.06 В 2 4000 м 3/3 1000 м
[Sc]
+34.0 +19.9 44 +40 +43 очень
душно
997.8 970.3 +35.0
15 18.06 В 1 4000 м 4/4 1000 м
[Sc]
+30.0 +21.1 59 +38 +38 очень
душно
999.4 971.0
18 18.06 штиль 0 4000 м 3/3 1000 м
[Sc]
+28.0 +21.3 67 +35 +35 очень
душно
1000.7 972.3
21 18.06 штиль 0 4000 м 3/3 1000 м
[Sc]
+27.5 +21.6 70 +35 +35 очень
душно
1001.6 1000.0
00 19.06 штиль 0 4000 м 3/3 1000 м
[Sc]
+26.0 +21.5 76 +33 +33 очень
душно
998.9 970.4
03 19.06 штиль 0 4000 м ясно +31.0 +20.6 54 +38 +49 очень
душно
1000.9 972.8 +25.6
06 19.06 СЗ 2 4000 м ясно +34.0 +16.9 36 +37 +57 опасность
солнечного
удара
1000.8 972.9
09 19.06 ЮЗ 1 4000 м ясно +37.5 +17.8 32 +41 +61 опасность
перегрева
998.4 970.7
12 19.06 штиль 0 4000 м ясно +37.5 +16.7 29 +40 +45 очень
душно
996.3 969.0 +38.5
15 19.06 штиль 0 4000 м ясно +34.0 +18.9 41 +39 +39 очень
душно
969.3 1000.0
18 19.06 штиль 0 4000 м ясно +29.5 +19.7 56 +36 +36 очень
душно
998.3 970.2
21 19.06 штиль 0 4000 м 4/0
[Ac trans]
+27.5 +19.9 63 +33 +33 очень
душно
998.3 1000.0
00 20.06 штиль 0 4000 м ясно +26.0 +19.9 69 +32 +32 очень
душно
998.6 970.7
03 20.06 штиль 0 4000 м 8/4 1000 м
[Sc diur, vesp Ac As]
+30.0 +20.3 56 +37 +40 очень
душно
1000.1 971.9 +25.5
06 20.06 СЗ 3 4000 м гроза, ливневой дождь 10/8 600 м
[Cb cap As op]
+29.5 +14.2 39 +31 +32 жарко 1003.9 975.6 0.0
09 20.06 СВ 3 4000 м 6/3
[Sc Ac As]
+33.5 +15.2 33 +35 +42 душно 1000.4 972.3
12 20.06 штиль 0 4000 м ясно +37.0 +14.9 27 +38 +44 душно 997.7 970.4 +37.5
15 20.06 штиль 0 4000 м 4/0
[Ac As]
+32.5 +18.9 45 +38 +38 очень
душно
999.8 971.6
18 20.06 штиль 0 4000 м 9/4 1000 м
[Sc Ac As]
+28.5 +18.5 55 +34 +34 очень
душно
1002.0 973.7
21 20.06 штиль 0 4000 м 9/4 1000 м
[Sc Ac As]
+26.0 +16.4 55 +29 +29 душно 1001.9 1000.0
00 21.06 штиль 0 4000 м 9/4 1000 м
[Sc Ac As]
+25.0 +16.1 58 +28 +28 жарко 1002.0 973.4
03 21.06 штиль 0 4000 м ясно +29.0 +18.2 52 +34 +44 очень
душно
1003.9 974.9 +24.9
06 21.06 штиль 0 4000 м ясно +36.0 +18.7 36 +40 +68 опасность
солнечного
удара
1003.9 976.2
09 21.06 ЮЗ 1 4000 м ясно +37.5 +16.7 29 +40 +62 опасность
солнечного
удара
1001.8 1000.0
12 21.06 ЮЗ 3 4000 м ясно +38.5 +14.9 25 +40 +43 очень
душно
999.0 971.5 +39.0
18 21.06 штиль 0 4000 м ясно +29.0 +18.2 52 +34 +34 очень
душно
1000.8 972.5
21 21.06 штиль 0 4000 м ясно +26.5 +18.8 63 +32 +32 очень
душно
1000.5 1000.0
00 22.06 штиль 0 4000 м ясно +26.0 +18.7 64 +31 +31 очень
душно
1000.4 971.8
03 22.06 штиль 0 4000 м 3/0
[Ac trans]
+32.0 +18.2 44 +37 +45 очень
душно
1001.1 973.3 +25.1
06 22.06 штиль 0 4000 м ясно +38.0 +14.1 24 +38 +66 опасность
солнечного
удара
1001.1 973.8
09 22.06 штиль 0 4000 м ясно +40.5 +13.4 20 +40 +64 опасность
солнечного
удара
999.2 1000.0
12 22.06 штиль 0 4000 м 3/0
[Ac As]
+41.0 +14.3 21 +42 +46 опасность
перегрева
997.2 970.3 +42.0
15 22.06 штиль 0 4000 м ясно +37.0 +17.1 31 +40 +40 очень
душно
997.2 1000.0
18 22.06 штиль 0 4000 м ясно +32.0 +16.9 40 +35 +35 очень
душно
997.2 971.3
21 22.06 штиль 0 4000 м ясно +29.0 +17.2 49 +33 +33 очень
душно
999.0 1000.0
00 23.06 штиль 0 4000 м ясно +27.0 +16.6 53 +31 +31 душно 999.7 971.2
03 23.06 ЮВ 1 4000 м ясно +31.5 +18.5 46 +36 +46 очень
душно
1001.6 973.5 +26.7
06 23.06 штиль 0 4000 м ясно +36.0 +21.5 43 +44 +71 опасность
перегрева
1002.9 975.1
09 23.06 СЗ 2 4000 м ясно +36.0 +19.7 39 +42 +61 опасность
перегрева
1001.7 1000.0
12 23.06 штиль 0 4000 м 3/0
[Ac As]
+38.0 +16.4 28 +40 +44 очень
душно
998.8 971.3 +38.5
15 23.06 штиль 0 4000 м 8/3 1000 м
[Sc Ac As]
+33.0 +17.6 40 +37 +37 очень
душно
1000.2 1000.0
18 23.06 штиль 0 4000 м 9/4 1000 м
[Sc Ac As]
+31.0 +18.8 48 +36 +36 очень
душно
1002.4 974.3
21 23.06 штиль 0 4000 м 9/4 1000 м
[Sc Ac As]
+29.5 +17.9 50 +34 +34 очень
душно
1002.1 973.5
00 24.06 штиль 0 4000 м 10/5 1000 м
[Sc As op]
+28.0 +17.9 54 +32 +32 душно 1001.9 973.6
03 24.06 штиль 0 4000 м 10/5 1000 м
[Sc As op]
+29.0 +19.1 55 +34 +36 очень
душно
1004.2 975.8 +27.7
06 24.06 штиль 0 4000 м 9/4 1000 м
[Sc Ac As]
+31.0 +20.6 54 +38 +45 очень
душно
1005.7 977.5
09 24.06 штиль 0 2000 м слаб. морось 10/5 1000 м
[Sc As op]
+30.0 +21.1 59 +38 +40 очень
душно
1004.3 1000.0 0.0
12 24.06 штиль 0 4000 м 9/5 1000 м
[Sc Ac As]
+31.0 +23.9 66 +43 +44 опасность
перегрева
1001.2 973.3 +31.5 0.0
15 24.06 штиль 0 4000 м 9/5 1000 м
[Sc Ac As]
+30.0 +22.8 65 +40 +40 очень
душно
1001.4 1000.0
18 24.06 штиль 0 4000 м 3/3 1000 м
[Sc]
+28.0 +22.1 70 +36 +36 очень
душно
1004.8 976.4
21 24.06 штиль 0 4000 м 8/4 1000 м
[Sc Ac As]
+27.0 +22.6 77 +36 +36 очень
душно
1003.9 1000.0
00 25.06 штиль 0 4000 м 9/5 1000 м
[Sc Ac As]
+27.0 +22.6 77 +36 +36 очень
душно
1003.0 974.6
03 25.06 штиль 0 4000 м 6/3 1000 м
[Sc Ac As]
+30.5 +24.1 69 +42 +48 опасность
перегрева
1003.8 975.6 +26.5
06 25.06 З 1 4000 м 3/3 1000 м
[Sc]
+35.0 +22.9 50 +45 +63 опасность
перегрева
1003.3 975.5
09 25.06 В 1 4000 м 4/4 1000 м
[Sc]
+38.0 +20.5 36 +44 +57 опасность
перегрева
1001.6 1000.0

 

Местоположение метеостанции Сиялкот (Пакистан): широта 32.50 долгота 74.53 высота над уровнем моря 256 м.

В архиве по умолчанию представлена погода в Сиялкоте за последнюю неделю. Архивные данные за месяц целиком и за предыдущие месяцы, начиная с января 2011 года, Вы можете получить, выбрав интересующий диапазон дат из раскрывающегося списка и нажав кнопку "Ввод!".


*Определитесь, кто Вы:
робот инопланетянин человек

Внимание! Время в таблицах - всемирное. Для получения местного времени необходимо прибавить поправку, которая равна 5 ч.

Смотрите также архив погоды в соседних городах и на ближайших метеорологических станциях:

Погода в Джамму (Джамму и Кашмир, Индия) (34 км)
Погода в Гуджрате (Пакистан) (40 км)
Погода в Сиалкот аэропорту (Пакистан) (47 км)
Погода в Гуджранвале (Пакистан) (53 км)
Погода в Наровале (Пакистан) (53 км)
Погода в Катре (Джамму и Кашмир, Индия) (66 км)
Погода в Джеламе (Пакистан) (90 км)
Погода в Хафизабаде (Пакистан) (95 км)
Погода в Батоте (Джамму и Кашмир, Индия) (100 км)
Погода в Амритсаре (Пенджаб, Индия) (102 км)

Пояснения к столбцам:

Ветер - указаны скорость ветра в м/с - средняя за 10 мин, порывы в срок и между сроками (в фигурных скобках) и направление, откуда дует ветер: С - северный, СВ - северо-восточный, В - восточный, ЮВ - юго-восточный, Ю - южный, ЮЗ - юго-западный, З - западный, СЗ - северо-западный.
Видимость - горизонтальная дальность видимости в метрах или километрах. При видимости от 1 до 10 км при отсутствии осадков обычно наблюдается дымка, при ухудшении видимости до 1 км и менее - туман. В сухую погоду видимость может ухудшаться дымом, пылью или мглою.
Явления - указаны атмосферные явления, наблюдавшиеся в срок или в последний час перед сроком; фигурными скобками обозначены явления, наблюдавшиеся между сроками (за 1-3 часа до срока); квадратными скобками обозначены град или гололедные отложения с указанием их диаметра в мм.
Облачность - указаны через наклонную черту общая и нижняя облачность в баллах и высота нижней границы облаков в метрах; квадратными скобками обозначены формы облаков: Ci - перистые, Cs - перисто-слоистые, Cc - перисто-кучевые, Ac - высококучевые, As - высокослоистые, Sc - слоисто-кучевые, Ns - слоисто-дождевые, Cu - кучевые, Cb - кучево-дождевые. Подробнее классификацию облаков см. в Атласе облаков (PDF).
T - Температура воздуха - температура, измеренная на высоте 2 м над землей.
Td - Температура точки росы - температура, при понижении до которой содержащийся в воздухе водяной пар достигнет насыщения.
f - Относительная влажность воздуха - влажноcть воздуха, измеренная на высоте 2 м над землей.
Te - Эффективная температура - температура, которую ощущает одетый по сезону человек в тени. Характеристика душности погоды. При расчете учитывается влияние влажности воздуха и скорости ветра на теплоощущения человека.
Tes - Эффективная температура на солнце - температура, которую ощущает человек, с поправкой на солнечный нагрев. Характеристика знойности погоды. Зависит от высоты солнца над горизонтом, облачности и скорости ветра. Ночью, в пасмурную погоду, а также при ветре 12 м/с и более поправка равна нулю.
P - Атмосферное давление - приведенное к уровню моря атмосферное давление.
Po - Атмосферное давление - измеренное на уровне метеостанции атмосферное давление.
Tmin - Минимальная температура - минимум температуры воздуха на высоте 2 м над землей.
Tmax - Максимальная температура - максимум температуры воздуха на высоте 2 м над землей.
R - Количество осадков - Количество выпавших осадков за период времени, мм. При наведении курсора мыши на число - период времени, за который выпало указанное количество осадков.
R24 - Количество осадков - Количество выпавших осадков за 24 часа, мм.
S - Снежный покров - Высота снежного покрова, см. При наведении курсора мыши на число - состояние снежного покрова и степень покрытия местности в баллах.